[TLELIST] Archives

 

[list_settings.list_name] Current TLEs

June 30th 2022 PST

HST 1 20580U 90037B 22181.18775999 .00001143 00000-0 56594-4 0 9995 2 20580 28.4702 84.4181 0002593 169.1822 321.5441 15.10616889568413 ISS (ZARYA) 1 25544U 98067A 22181.35710287 .00008126 00000-0 15138-3 0 9995 2 25544 51.6442 271.3620 0004487 315.7490 152.8163 15.49774897347222 CXO 1 25867U 99040B 22181.26889951 .00000375 00000-0 00000-0 0 9997 2 25867 44.9867 234.1037 8837293 234.7669 0.0278 0.37806042 11857 ____________________________________________________________________ These 2-Line ...Continue Reading

[list_settings.list_name] Current TLEs

June 29th 2022 PST

HST 1 20580U 90037B 22179.47683958 .00001423 00000-0 73166-4 0 9992 2 20580 28.4700 95.7555 0002650 151.3420 16.5645 15.10613810567880 ISS (ZARYA) 1 25544U 98067A 22180.32430688 .00009268 00000-0 17159-3 0 9998 2 25544 51.6439 276.4783 0004414 310.4313 152.2043 15.49760898347069 CXO 1 25867U 99040B 22181.26889951 .00000375 00000-0 00000-0 0 9997 2 25867 44.9867 234.1037 8837293 234.7669 0.0278 0.37806042 11857 ____________________________________________________________________ These 2-Line ...Continue Reading

[list_settings.list_name] Current TLEs

June 28th 2022 PST

HST 1 20580U 90037B 22178.21252299 .00001642 00000-0 86091-4 0 9997 2 20580 28.4698 104.1336 0002692 138.3254 340.3249 15.10611267567695 ISS (ZARYA) 1 25544U 98067A 22179.35801735 .00008676 00000-0 16125-3 0 9998 2 25544 51.6436 281.2631 0004568 306.2491 161.7961 15.49741312346919 CXO 1 25867U 99040B 22181.26808111 .00000375 00000-0 00000-0 0 9996 2 25867 44.9865 234.1037 8837296 234.7668 359.9162 0.37805927 11845 ____________________________________________________________________ These 2-Line ...Continue Reading

[list_settings.list_name] Current TLEs

June 27th 2022 PST

HST 1 20580U 90037B 22178.12963306 .00001624 00000-0 85021-4 0 9997 2 20580 28.4698 104.6828 0002697 137.5620 249.4215 15.10610900567942 ISS (ZARYA) 1 25544U 98067A 22178.32399670 -.00069701 00000-0 -12366-2 0 9994 2 25544 51.6423 286.3739 0004907 309.1572 146.2387 15.49702658346751 CXO 1 25867U 99040B 22178.62379385 .00000241 00000-0 00000-0 0 9990 2 25867 45.0521 234.2995 8834830 234.6366 359.9891 0.37804917 11842 ____________________________________________________________________ These 2-Line ...Continue Reading

[list_settings.list_name] Current TLEs

June 26th 2022 PST

HST 1 20580U 90037B 22176.57004652 .00001602 00000-0 83753-4 0 9990 2 20580 28.4696 115.0173 0002729 121.7140 47.1072 15.10605657567449 ISS (ZARYA) 1 25544U 98067A 22177.42411939 -.00044277 00000-0 -78130-3 0 9990 2 25544 51.6405 290.8434 0003737 292.3990 179.2919 15.49665332346619 CXO 1 25867U 99040B 22178.62379385 .00000241 00000-0 00000-0 0 9990 2 25867 45.0521 234.2995 8834830 234.6366 359.9891 0.37804917 11842 ____________________________________________________________________ These 2-Line ...Continue Reading

[list_settings.list_name] Current TLEs

June 25th 2022 PST

HST 1 20580U 90037B 22175.57838664 .00001655 00000-0 86878-4 0 9996 2 20580 28.4694 121.5885 0002743 111.8270 53.4704 15.10602622567293 ISS (ZARYA) 1 25544U 98067A 22176.39129791 .00007236 00000-0 13522-3 0 9993 2 25544 51.6428 295.9542 0004383 302.2537 163.4038 15.49874710346457 CXO 1 25867U 99040B 22175.97948555 .00000144 00000-0 00000-0 0 9998 2 25867 45.1249 234.5054 8831675 234.4985 0.0539 0.37805525 11825 ____________________________________________________________________ These 2-Line ...Continue Reading

[list_settings.list_name] Current TLEs

June 24th 2022 PST

HST 1 20580U 90037B 22174.58719863 .00001794 00000-0 95104-4 0 9991 2 20580 28.4692 128.1566 0002749 101.9382 62.4186 15.10599991567142 ISS (ZARYA) 1 25544U 98067A 22175.35755834 .00006687 00000-0 12567-3 0 9998 2 25544 51.6442 301.0719 0004048 296.9808 157.0854 15.49852670346294 CXO 1 25867U 99040B 22175.97948555 .00000144 00000-0 00000-0 0 9998 2 25867 45.1249 234.5054 8831675 234.4985 0.0539 0.37805525 11825 ____________________________________________________________________ These 2-Line ...Continue Reading

[list_settings.list_name] Current TLEs

June 23rd 2022 PST

HST 1 20580U 90037B 22174.16456830 .00001890 00000-0 10076-3 0 9998 2 20580 28.4691 130.9571 0002751 97.8063 283.6598 15.10599047567348 ISS (ZARYA) 1 25544U 98067A 22174.39038399 .00005255 00000-0 10057-3 0 9993 2 25544 51.6437 305.8632 0004184 291.0659 163.1198 15.49832272346144 CXO 1 25867U 99040B 22175.97948555 .00000144 00000-0 00000-0 0 9998 2 25867 45.1249 234.5054 8831675 234.4985 0.0539 0.37805525 11825 ____________________________________________________________________ These 2-Line ...Continue Reading

[list_settings.list_name] Current TLEs

June 22nd 2022 PST

HST 1 20580U 90037B 22172.91067178 .00001893 00000-0 10093-3 0 9994 2 20580 28.4688 139.2661 0002748 85.2565 303.8025 15.10594500566898 ISS (ZARYA) 1 25544U 98067A 22173.35825186 .00003036 00000-0 61544-4 0 9999 2 25544 51.6447 310.9760 0004112 287.9494 163.7666 15.49813549345989 CXO 1 25867U 99040B 22175.97851398 .00000144 00000-0 00000+0 0 9995 2 25867 45.1249 234.5054 8831671 234.4984 359.9211 0.37805819 22988 ____________________________________________________________________ These 2-Line ...Continue Reading

[list_settings.list_name] Current TLEs

June 21st 2022 PST

HST 1 20580U 90037B 22171.68137959 .00001958 00000-0 10477-3 0 9990 2 20580 28.4687 147.4120 0002735 72.7650 97.9737 15.10590389566702 ISS (ZARYA) 1 25544U 98067A 22172.39156889 -.00020759 00000-0 -35927-3 0 9997 2 25544 51.6428 315.7624 0004429 285.9179 168.8032 15.49791165345835 CXO 1 25867U 99040B 22173.33443659 .00000171 00000-0 00000-0 0 9991 2 25867 45.1972 234.7047 8826606 234.3706 0.0055 0.37806563 11815 ____________________________________________________________________ These 2-Line ...Continue Reading
  • This mailing list is a public mailing list - anyone may join or leave, at any time.
  • This mailing list is announce-only.

International Space Station (ISS) / Hubble Space Telescope (HST) / Chandra X-Ray Observatory Orbital Data via EMAIL

Privacy Policy:

Private list